ONEWEB-0536 (54148 NORAD) Tracking and Keplerian Element Data

This shows tracking and keplerian element data for the satellite.

Feedback or suggestion? Click here.




ElementValue
Catalog54148
NameONEWEB-0536
Epoch Orbit527
Epoch Day325.33334491
Epoch Year2022
RAAN207.0021
Inclination87.0961
Eccentricity0.0010214
Argument of Perigee178.4274
Mean Anonmoly150.8806
Mean Motion14.91571663
Decay Rate-0.00051937
L11 54148U 22138AM 22325.33334491 -.00051937 00000+0 -52243-2 0 9996
L22 54148 87.0961 207.0021 0010214 178.4274 150.8806 14.91571663 5273



Live tracking and technical data element details for ONEWEB-0536 (NORAD 54148). ONEWEB-0536 can be tracked NOW for your location showing map with azimuth and elevation plus other details from your city location.







IsCatalogInMostPopularTable: catalog: 54148, numindb: 6
Update: records affected: 1



GetName: 54148 ONEWEB-0536

Hit Count: updated at: Sun, 04 Dec 2022 22:55:09 GMT